User: anonymous
Location: Nebula Knoll Observatory
(43.6666°N, 71.0000°W)
Time: 10:30:52
(UTC-04:00)
Language:

Cosmos 1782 - Orbit

View from above orbital plane
View from above orbital plane
View from above satellite
View from above satellite

Ground track
Ground track

The orbit data is extracted from the following two-line orbital elements,

1 16986U 86074A   14109.16568639  .00004391  00000-0  32786-3 0  7303
2 16986 082.5082 162.3578 0010887 325.6510 034.4010 15.02568438497111
Epoch (UTC): 19 April 2014 03:58:35
Eccentricity: 0.0010887
inclination: 82.5082°
perigee height: 551 km
apogee height: 566 km
right ascension of ascending node: 162.3578°
argument of perigee: 325.6510°
revolutions per day: 15.02568438
mean anomaly at epoch: 34.4010°
orbit number at epoch: 49711

The dashed part of the orbit path shows where the satellite is in the earth's shadow,  

DLR